Regional Weather Roundup
Issued by NWS

Home | Current Version | Previous Version | Graphics & Text | Print | Product List | Glossary On
Versions: 1 2 3 4 5 6 7 8 9 10 11 12 13 14 15 16 17 18 19 20 21 22 23 24 25 26 27 28 29 30 31 32 33 34 35 36 37 38 39 40 41 42 43 44 45 46 47 48 49 50
000
ASUS43 KLSX 160259
RWRMO

WEATHER SUMMARY FOR MISSOURI
NATIONAL WEATHER SERVICE SPRINGFIELD MO
1000 PM CDT TUE APR 15 2014

NOTE: "FAIR" INDICATES FEW OR NO CLOUDS BELOW 12,000 FEET WITH NO
       SIGNIFICANT WEATHER AND/OR OBSTRUCTIONS TO VISIBILITY.
       CURRENT SKY AND/OR WEATHER CONDITIONS ARE NOT AVAILABLE FOR
       CHILLICOTHE AND FARMINGTON.

MOZ001>031-035>038-043-044-053-054-160400-
...NORTHERN AND WESTERN MISSOURI...

CITY           SKY/WX    TMP DP  RH WIND       PRES   REMARKS
KANSAS CTY INT MOCLDY    49  27  42 S15       30.02S
KANSAS C DTWN  PTCLDY    51  28  41 S13G23    30.04R
LEE`S SUMMIT   PTCLDY    47  28  47 SE10      30.05S
ST JOSEPH      CLOUDY    48  28  46 S13       30.00S
CHILLICOTHE      N/A     47  28  47 SE8       30.08S
KIRKSVILLE     MOCLDY    36  27  69 S8        30.12R WCI  30

$$
MOZ066>068-077>081-088>096-101>105-160400-
...SOUTHWEST MISSOURI...

CITY           SKY/WX    TMP DP  RH WIND       PRES   REMARKS
SPRINGFIELD    PTCLDY    40  28  62 SE7       30.14R
JOPLIN         MOCLDY    47  26  44 SE8       30.11R

$$
MOZ032>034-039>042-045>050-055>058-069>072-160400-
...CENTRAL MISSOURI...

CITY           SKY/WX    TMP DP  RH WIND       PRES   REMARKS
COLUMBIA       PTCLDY    41  24  51 SE7       30.15R
JEFFERSON CITY PTCLDY    41  27  57 E5        30.17R
ROLLA          PTCLDY    36  25  64 E7        30.15R
SEDALIA        MOCLDY    44  28  53 SE10      30.13R
OSAGE BEACH    MOCLDY    43  19  39 SE3       30.17R

$$
MOZ051-052-059>065-160400-
...EAST CENTRAL MISSOURI...

CITY           SKY/WX    TMP DP  RH WIND       PRES   REMARKS
ST LOUIS INTL  PTCLDY    43  22  43 SE7       30.20R
SPIRIT OF STL  PTCLDY    37  26  64 CALM      30.19R
ST CHARLES     PTCLDY    38  31  76 CALM      30.20R

$$
MOZ072>076-082>087-097>100-106>115-160400-
...SOUTH CENTRAL AND SOUTHEAST MISSOURI...

CITY           SKY/WX    TMP DP  RH WIND       PRES   REMARKS
CAPE GIRARDEAU CLEAR     39  25  57 E6        30.23R
FARMINGTON     CLEAR     37  21  52 CALM      30.22R
POPLAR BLUFF   CLEAR     43  30  60 MISG      30.22R
WEST PLAINS    PTCLDY    40  24  53 CALM      30.18R

$$



USA.gov is the U.S. government's official web portal to all federal, state and local government web resources and services.